Thompson Airport
CYTH : rendu visible

Aérodrome :











RETROUVEZ-NOUS SUR...

 
LOGIN :

S'inscrire | Disclaimer

   EN    FR    IT 

 









Légende :    VFR   VFR Marginal   IFR   IFR Intensif   IFR Très Intensif
Visi : 
Plafond : 
>= 8 km
>= 3000ft
5 à 8 km
1000 à 3000 ft
1500m à 5 km
500 à 1000 ft
800 à 1500m
200 à 500 ft
< 800m
< 200 ft
Symboles :   Orages  Brouillard  Fortes neiges  Fortes précipitations  Vent > 20 kt






- Altitude de l'aérodrome : 729 ft
- Code IATA : YTH


CYTH - Thompson

DERNIER METAR :
  • 300300Z 06003KT 15SM FEW065 SCT210 03/M02 A3021 RMK SC2CI1 SLP244

METARs EXPIRÉS :
  • 300200Z 02004KT 15SM FEW065 FEW210 08/M04 A3021 RMK SC1CI1 SLP244
  • 300100Z 34008KT 290V010 15SM SCT065 09/M05 A3022 RMK SC3 SLP247

TAF TAF CYTH
Valide du 30 à 01h jusqu'au 30 à 13h UTC


300038Z 3001/3013 34010G20KT P6SM SCT060
BECMG 3001/3003 35007KT
FM300600 36005KT P6SM SKC
BECMG 3007/3009 VRB03KT RMK NXT FCST BY 300700Z
FIR CZWG / Amérique du Nord



MET'MAP, la Météo Aéronautique d'un coup d'oeil ! - Copyright ORBIFLY Décembre 2007 - Disclaimer

ORBIFLY MET'MAP TEAM :

Programmation & Développement : Alexandra Zaïnal
Sur une idée originale de : Baudouin d'Aumeries
Assistance à la programmation : Marc-Olivier Méhu
Soutien technique & logistique : Manuel Goepfert

Contact : metmap@orbifly.com




SOURCES & CREDITS :

   NOAA       Earth
Advisory